THOR ABLESTAR DEB, 538

Orbit data source: Space-Track

THOR ABLESTAR DEB, 538 is space debris in LEO originally from a launch on Thu, 29 Jun 1961 UTC launched from the Air Force Eastern Test Range (AFETR). Debris objects in space refer to the collection of defunct objects orbiting the Earth. Examples of debris include non-operational satellites, rocket bodies, and fragments generated from explosions, collisions, or faulty payload assembly.

Loading next visibility...
Identifier
538, 1961-015FX
Orbit
LEO
Country
Flag of USUS
Related business
Manufacturer
Unknown
Mission
Spacecraft
Bus & Motor
Unknown
Mass
Unknown
Launch date (UTC)
1961-06-29 (65 years ago)
Launch vehicle
Unknown
Launch site
Air Force Eastern Test Range (AFETR)
Object type
Payload
Rocket body
Debris
Shape & HBR
Unknown shape, 0.1 m
Radar Cross Section
Medium (>0.1 m² and <1 m²)

Expand to show TLE details & history
Last TLE update: 1 day ago

TLE from 1 day ago
0 THOR ABLESTAR DEB
1 00538U 61015FX  26175.48277890  .00004445  00000-0  83213-3 0  9992
2 00538  67.8043 302.2144 0010986 247.5880 112.4082 14.65626916364670
Epoch: 2026-06-24T11:35Z
TLE epoch observation values (Epoch: 2026-06-24T11:35:12.096Z)
Latitude
-0.00004°
Longitude
-144.22537°
Altitude
680.252 km
Speed
7.515 km/s
True Right ascension
20h 08m 51s
True Declination
0° 00' 00"
Sunlit
Object was in full shadow at epoch
Visualization orbit readout
Latitude
Unknown
Longitude
Unknown
Altitude
Unknown
Speed
Unknown
Apparent Right ascension
Unknown
Apparent Declination
Unknown
Sunlit
N/A
Visualization observer readout
Local Sidereal Time
03:56:43
Azimuth
Unknown
Elevation
Unknown
Doppler factor
Unknown
Orbital elements
Apogee altitude
681.029 km
Perigee altitude
665.536 km
Semi-major axis
7,051.42 km
Eccentricity
0.0011
Inclination
67.8043°
RAAN
302.2144°
Arg. of periapsis
247.588°
True anomaly
112.52452°
Mean anomaly
112.4082°
Eccentric anomaly
112.46637°
Mean motion
3.66546 °/min
Orbital period
98.21 mins
BSTAR
0.00083213
Loading maneuver chart data...
Computing Atmospheric mass density...

Documentation

Showing up to 5 results
|